Fayetteville, NC

3:29 PM EST on December 10, 2016 (GMT -0500)
Fayetteville Regional-Grannis

Weather History for KFAY - February, 2013

Change the Weather History Date:

Tuesday, February 12, 2013

  Actual Average Record
Temperature  
Mean Temperature 58 °F 47 °F  
Max Temperature 66 °F 59 °F 78 °F (1965)
Min Temperature 49 °F 35 °F 10 °F (1973)
Degree Days  
Heating Degree Days 7 18  
Month to date heating degree days 216 231  
Since 1 July heating degree days 1765 1957  
Cooling Degree Days 0 0  
Month to date cooling degree days 0 0  
Year to date cooling degree days 5 2  
Growing Degree Days 7 (Base 50)    
Moisture  
Dew Point 40 °F    
Average Humidity 58    
Maximum Humidity 96    
Minimum Humidity 20    
Precipitation  
Precipitation 0.11 in 0.10 in 1.46 in (1948)
Month to date precipitation 1.59 1.09  
Year to date precipitation 3.39 4.39  
Sea Level Pressure  
Sea Level Pressure 29.99 in    
Wind  
Wind Speed 5 mph (West)    
Max Wind Speed 15 mph    
Max Gust Speed 18 mph    
Visibility 10 miles    
Events Rain    
T = Trace of Precipitation, MM = Missing Value Source: NWS Daily Summary

Daily Weather History Graph

Daily Weather History Graph

Search for Another Location

Airport or City:

Trip Planner

Search our weather history database for the weather conditions in past years. The results will help you decide how hot, cold, wet, or windy it might be!

Date:

Astronomy

Feb. 12, 2013 Rise Set
Actual Time 7:04 AM EST 5:55 PM EST
Civil Twilight 6:38 AM EST 6:21 PM EST
Nautical Twilight 6:08 AM EST 6:51 PM EST
Astronomical Twilight 5:39 AM EST 7:20 PM EST
Moon 8:08 AM EST (2/12) 8:45 PM EST (2/12)
Length of Visible Light 11h 43m
Length of Day
10h 51m
Waxing Crescent, 7% of the Moon is Illuminated
Feb 12
Waxing Crescent
Feb 17
First Quarter
Feb 25
Full
Mar 4
Last Quarter
Mar 11
New

Hourly Weather History & Observations

Time (EST) Temp. Dew Point Humidity Pressure Visibility Wind Dir Wind Speed Gust Speed Precip Events Conditions
12:53 AM 59.0 °F 53.1 °F 81% 29.96 in 10.0 mi SW 11.5 mph - N/A   Clear
1:53 AM 57.9 °F 53.1 °F 84% 29.98 in 10.0 mi SW 11.5 mph - N/A   Clear
2:53 AM 57.0 °F 53.1 °F 87% 29.98 in 10.0 mi WSW 9.2 mph - N/A   Clear
3:53 AM 55.0 °F 53.1 °F 93% 29.97 in 10.0 mi West 5.8 mph - N/A   Clear
4:53 AM 54.0 °F 51.1 °F 90% 29.98 in 10.0 mi WSW 5.8 mph - N/A   Clear
5:53 AM 53.1 °F 51.1 °F 93% 29.99 in 10.0 mi WSW 6.9 mph - N/A   Clear
6:53 AM 52.0 °F 50.0 °F 93% 30.02 in 10.0 mi WSW 5.8 mph - N/A   Clear
7:53 AM 52.0 °F 48.9 °F 89% 30.04 in 10.0 mi West 5.8 mph - N/A   Clear
8:53 AM 53.1 °F 45.0 °F 74% 30.04 in 10.0 mi NNW 8.1 mph - N/A   Clear
9:53 AM 54.0 °F 36.0 °F 51% 30.07 in 10.0 mi NNW 8.1 mph - N/A   Clear
10:53 AM 55.9 °F 30.9 °F 39% 30.09 in 10.0 mi WNW 5.8 mph - N/A   Clear
11:53 AM 61.0 °F 26.1 °F 26% 30.04 in 10.0 mi NW 3.5 mph - N/A   Clear
12:53 PM 62.1 °F 25.0 °F 24% 30.02 in 10.0 mi WNW 3.5 mph - N/A   Clear
1:53 PM 64.0 °F 23.0 °F 21% 29.97 in 10.0 mi Calm Calm - N/A   Clear
2:53 PM 64.9 °F 25.0 °F 22% 29.97 in 10.0 mi WNW 5.8 mph - N/A   Clear
3:53 PM 64.9 °F 25.0 °F 22% 29.96 in 10.0 mi SW 6.9 mph - N/A   Clear
4:53 PM 63.0 °F 28.9 °F 28% 29.96 in 10.0 mi WSW 4.6 mph - N/A   Clear
5:53 PM 60.1 °F 32.0 °F 35% 29.98 in 10.0 mi WSW 4.6 mph - N/A   Clear
6:53 PM 55.0 °F 39.0 °F 55% 29.96 in 10.0 mi SSW 3.5 mph - N/A   Partly Cloudy
7:53 PM 54.0 °F 39.9 °F 59% 29.93 in 10.0 mi NNE 6.9 mph - N/A   Scattered Clouds
8:53 PM 55.0 °F 37.0 °F 51% 29.96 in 10.0 mi Calm Calm - N/A   Overcast
9:53 PM 53.1 °F 43.0 °F 69% 29.96 in 10.0 mi Calm Calm - 0.00 in   Overcast
10:53 PM 50.0 °F 46.9 °F 89% 29.99 in 10.0 mi SW 3.5 mph - 0.04 in Rain Light Rain
11:53 PM 50.0 °F 46.9 °F 89% 29.97 in 8.0 mi Calm Calm - 0.06 in Rain Light Rain